Theta_e
322 332 334 332 331 330 329 329 327 328 327 328 327 326 324 322 321 326 329 329 326 327 326 324 320 318 317 317 314 311 310 311 311 308 307 309 311 311 313 313 314 315 316
326 330 330 329 329 328 328 328 328 327 326 327 327 326 325 323 323 322 323 324 323 323 323 317 314 314 311 312 311 309 308 308 310 307 304 301 305 307 311 311 312 313 315
326 325 327 327 328 326 327 324 323 326 325 324 323 320 320 318 319 318 315 318 320 319 317 316 313 312 313 310 308 308 307 306 308 310 305 299 297 301 306 308 310 312 313
326 327 324 328 328 326 326 324 322 322 322 321 320 316 313 313 316 314 316 316 317 317 318 317 315 312 311 310 309 311 309 311 306 308 310 310 305 300 300 305 308 310 314
322 322 323 326 327 325 321 320 318 317 318 317 314 313 312 313 315 314 314 314 315 317 319 316 316 314 314 313 312 313 312 309 310 309 307 307 304 304 306 302 302 306 309
324 325 325 324 323 320 317 316 316 316 316 315 315 315 314 313 312 311 311 313 312 313 312 316 315 314 311 312 313 314 313 312 311 310 306 305 302 302 304 303 302 302 305
321 322 322 319 320 319 319 320 319 321 315 315 315 315 312 312 309 307 306 305 305 306 306 307 307 307 308 308 308 307 309 309 307 306 305 304 305 306 304 304 307 305 304
320 319 319 319 320 320 320 321 318 314 314 313 310 312 312 310 308 306 307 306 306 305 305 305 304 304 305 305 305 304 305 306 306 306 304 306 305 306 308 307 305 305 306
318 318 316 316 319 318 317 316 310 308 308 310 309 308 306 305 304 304 305 304 303 304 304 303 302 303 304 304 303 303 305 307 307 307 308 307 306 305 308 308 307 308 302
313 313 313 313 316 316 312 309 308 309 308 306 305 305 304 304 303 303 302 302 301 300 302 303 303 303 304 303 302 302 304 305 308 309 307 307 305 305 306 307 309 310 308
312 312 313 313 311 310 309 308 307 306 305 305 304 303 302 303 303 302 302 301 300 302 302 303 303 303 303 302 301 301 302 304 305 305 307 307 306 305 305 305 306 308 308
313 312 312 310 310 309 308 306 304 304 304 304 303 302 302 301 300 302 302 301 301 301 301 302 302 302 302 302 301 303 303 304 307 304 306 306 309 306 306 305 305 306 306
312 312 310 307 306 306 305 304 303 303 303 303 302 301 300 299 300 302 301 301 300 301 301 301 301 302 303 303 303 304 305 305 304 304 305 306 307 306 305 305 305 305 306
312 310 305 303 305 304 303 303 302 303 302 301 300 299 299 300 302 300 301 300 301 300 300 301 302 302 303 304 303 304 304 304 307 306 308 308 308 307 306 306 305 305 304
306 304 304 303 303 302 302 303 302 303 302 301 300 300 300 302 301 301 301 301 300 299 300 301 303 303 304 309 306 306 304 303 301 303 306 310 312 315 312 308 305 305 303
303 304 304 303 302 302 302 303 302 303 302 300 300 302 302 302 301 301 300 300 299 298 299 301 302 302 304 306 306 306 301 301 301 304 309 310 315 314 314 315 312 309 304
302 302 303 302 302 302 304 302 302 302 302 301 303 305 303 302 302 301 300 300 298 297 298 300 301 301 302 304 304 306 303 300 300 303 307 309 310 310 308 309 311 311 311
302 303 303 302 302 302 302 302 302 301 302 302 303 305 303 302 302 301 299 298 297 297 297 299 301 300 302 304 302 304 304 306 306 306 307 306 306 305 306 306 311 313 312
303 303 303 302 301 302 303 302 301 302 302 303 303 304 303 302 302 301 299 299 296 297 298 300 301 300 300 302 302 302 302 311 310 309 307 306 304 302 303 307 307 306 308
304 304 303 302 302 303 302 302 301 301 302 304 305 305 304 303 302 301 299 299 296 298 300 300 300 301 297 301 301 300 305 303 303 302 303 306 304 300 297 305 304 302 303
304 305 304 303 304 304 302 301 302 302 305 306 305 304 304 303 302 301 299 298 298 297 298 299 298 297 297 300 300 298 305 304 302 301 305 307 302 301 297 300 304 304 304
305 305 303 303 305 304 302 302 301 306 305 305 304 304 303 304 305 301 301 299 296 297 297 296 297 296 298 300 300 298 298 302 304 302 303 305 301 300 298 299 297 300 303
305 305 304 304 305 303 303 302 305 307 305 303 303 304 303 303 302 300 300 299 297 296 296 295 295 296 296 299 300 298 298 301 302 306 305 302 299 298 300 300 299 301 305
304 304 306 305 304 309 306 306 307 306 304 303 304 304 302 302 301 301 301 299 297 296 296 295 295 295 295 298 300 300 299 300 302 301 301 303 301 300 301 302 305 303 306
306 308 308 307 308 310 311 311 310 307 305 305 305 303 303 302 302 301 302 300 300 299 298 296 296 295 295 298 300 299 299 296 296 293 298 300 301 301 303 304 304 304 306
309 308 308 307 307 308 309 310 310 311 307 305 305 304 304 303 302 302 303 298 299 298 295 296 297 297 296 296 293 293 295 294 293 295 299 298 300 301 301 303 304 305 306
Wind_Speed
1 2 1 6 8 8 8 7 5 2 3 2 2 2 3 4 4 3 3 3 4 5 7 6 5 4 5 5 5 4 4 2 2 2 3 3 5 7 6 4 5 5 5
6 3 6 6 5 5 6 6 5 2 3 1 2 1 3 4 3 2 4 5 6 5 4 2 5 5 3 6 5 4 2 2 2 2 2 4 5 4 4 5 4 6 5
4 1 4 6 7 6 7 5 3 4 3 4 2 1 3 3 3 4 4 6 8 5 4 3 2 3 4 5 4 2 3 3 2 5 3 1 4 4 2 4 4 6 4
4 4 3 6 5 4 5 5 4 3 3 3 4 3 1 3 2 1 2 4 5 4 3 2 2 3 3 4 4 2 4 3 3 2 4 3 3 3 9 1 4 6 6
5 6 5 6 6 5 4 4 3 3 2 2 3 1 3 2 2 4 4 1 3 5 4 4 3 4 3 2 4 4 5 4 3 4 3 2 3 4 6 10 4 4 5
6 6 7 8 6 5 5 5 5 3 1 2 2 3 2 4 3 3 4 4 3 3 5 5 3 4 5 5 5 6 7 6 5 4 4 4 4 4 5 6 6 5 5
8 7 7 7 7 7 5 3 3 2 3 4 4 3 1 2 3 1 2 3 3 3 5 3 4 5 6 6 6 6 5 5 4 6 5 4 5 4 4 4 8 6 3
7 6 7 6 6 6 6 6 6 4 4 3 4 5 6 3 3 3 3 3 3 4 5 6 6 6 7 6 6 4 5 5 5 7 5 4 4 4 5 5 4 6 4
7 8 7 6 7 7 7 6 4 4 4 6 6 6 5 4 3 5 4 3 5 4 6 7 6 7 7 7 7 5 6 5 5 6 5 4 5 4 5 5 5 6 5
5 6 5 6 4 4 3 4 4 7 7 7 6 5 5 4 5 4 5 6 6 5 7 7 8 8 8 7 7 6 7 5 5 5 5 5 4 5 4 5 5 7 8
9 7 6 4 5 4 3 5 7 7 6 6 5 4 4 5 4 5 6 5 5 7 7 7 9 10 9 7 6 7 7 7 6 5 5 7 5 4 4 4 4 6 6
8 6 6 6 7 7 6 7 6 6 6 6 4 5 5 4 5 6 5 5 7 7 7 7 8 10 10 8 7 7 6 7 5 6 6 6 5 6 6 4 7 6 7
6 5 4 6 6 6 7 7 6 6 7 5 5 5 5 5 6 6 5 6 6 7 7 6 7 9 9 8 5 5 7 5 5 6 7 8 6 7 5 6 5 5 4
7 6 6 7 6 6 7 6 6 7 6 5 6 5 5 6 6 5 5 6 6 7 7 6 7 7 8 7 2 3 6 6 6 7 8 8 8 9 7 6 6 5 4
7 8 8 7 7 6 6 5 6 6 6 7 4 6 6 4 4 5 6 7 7 7 7 6 6 6 6 4 5 5 5 6 6 7 7 9 11 14 9 4 5 5 4
8 8 7 6 7 7 7 6 7 7 6 7 6 6 4 6 6 6 7 7 7 7 6 6 6 7 4 9 10 9 6 6 5 7 7 5 4 4 3 4 6 6 5
7 7 7 7 7 8 8 8 8 6 7 7 6 6 6 6 7 6 6 7 8 5 7 7 6 7 7 10 10 12 5 6 6 6 4 2 2 3 2 3 3 4 8
6 6 7 5 7 5 7 7 6 7 7 7 7 6 7 7 7 6 8 7 5 7 6 7 7 6 7 11 10 10 6 5 6 5 4 2 1 2 4 4 4 2 3
7 7 7 7 6 8 9 7 7 7 7 8 7 7 7 7 7 7 8 7 5 5 6 5 7 6 7 10 11 9 5 3 4 4 3 2 2 5 6 3 2 3 3
7 8 9 5 7 9 7 7 9 7 9 10 9 7 8 8 8 8 7 5 4 6 5 6 5 7 7 9 9 8 4 2 3 4 2 2 1 3 7 1 3 3 1
9 8 7 9 12 9 7 9 9 10 13 9 7 7 7 9 9 6 4 6 7 5 6 6 5 6 6 6 9 7 3 1 1 0 0 1 2 3 6 2 3 1 3
9 9 8 10 12 8 7 10 9 16 9 7 7 8 8 7 6 7 7 6 6 6 6 5 6 4 5 4 5 6 6 3 2 3 2 3 5 1 3 2 4 2 1
11 6 8 10 10 7 7 9 16 11 9 7 9 8 7 7 7 6 7 5 4 5 6 4 4 5 4 4 4 6 7 4 3 3 5 7 6 3 4 5 7 1 2
9 5 6 8 8 15 10 10 14 8 6 8 10 8 7 8 7 5 5 5 5 5 5 5 5 4 4 4 3 2 3 4 2 4 4 3 5 4 3 4 3 1 2
2 7 6 7 10 9 10 12 13 7 8 9 11 8 7 8 8 7 8 6 7 7 5 6 5 5 5 6 7 6 3 1 1 5 2 1 1 3 2 2 2 1 1
8 12 13 15 13 13 14 13 16 16 11 11 9 7 7 7 7 7 8 12 14 12 14 13 9 6 9 6 9 8 8 6 2 2 2 2 2 3 2 3 4 2 4
Wind_Direction
290 143 99 107 117 123 148 168 152 100 132 141 164 17 315 295 269 269 344 351 257 267 252 250 225 211 207 213 198 197 222 267 137 30 321 303 283 286 274 290 286 272 258
340 28 121 99 118 160 160 168 116 161 196 139 104 141 227 253 303 334 322 297 330 309 280 334 293 290 271 257 227 185 198 252 167 169 100 313 311 313 306 289 276 282 304
271 302 104 123 142 166 176 138 159 183 151 140 88 3 307 317 326 6 11 1 5 14 41 16 309 276 260 263 261 218 249 266 254 162 170 6 266 305 273 293 285 284 299
142 151 129 142 137 92 58 64 54 129 159 180 221 141 254 247 55 7 333 347 7 36 38 46 340 296 278 281 281 224 203 209 249 337 169 216 182 287 316 337 310 308 295
157 148 140 115 93 108 123 143 171 132 177 223 70 145 305 331 358 353 340 10 358 5 1 355 329 352 321 291 263 256 256 234 228 224 231 190 246 228 253 293 304 295 271
117 130 115 105 111 128 161 151 159 191 229 200 203 229 291 316 336 343 1 353 344 310 298 316 304 276 276 258 237 230 229 229 222 221 213 187 185 202 223 253 277 263 289
137 137 127 142 162 162 168 186 192 181 156 173 188 210 262 59 89 82 219 237 257 251 284 291 300 301 295 293 293 288 276 270 230 227 220 202 210 203 208 227 271 280 293
143 156 171 174 159 149 174 186 180 154 173 163 92 85 92 126 173 209 231 288 262 278 301 315 315 293 296 295 286 266 263 260 251 250 227 215 222 209 214 213 217 272 266
157 173 168 163 154 158 182 170 152 132 135 129 123 132 149 169 219 257 268 279 290 291 316 307 295 299 296 289 293 274 261 245 251 240 227 209 237 217 222 215 205 244 275
184 186 177 168 143 152 157 142 183 161 150 141 156 170 190 217 239 257 277 285 304 316 303 308 311 304 300 291 287 283 275 263 257 257 238 223 227 231 213 218 216 225 243
202 198 195 177 159 137 148 138 134 143 157 165 180 182 232 254 277 275 281 301 304 308 312 311 312 305 295 283 275 273 268 266 268 270 255 252 230 238 229 210 208 222 211
198 199 199 179 177 173 171 157 157 168 186 189 191 222 244 262 270 270 289 310 313 308 303 302 301 297 292 284 281 289 284 281 278 267 260 261 261 245 232 213 219 216 205
187 195 188 208 207 181 170 169 176 195 205 199 215 252 271 284 284 269 298 309 304 299 299 299 296 297 290 283 298 286 304 295 295 278 271 262 250 258 239 221 223 215 203
200 186 200 193 175 171 167 176 200 212 214 222 233 258 274 273 247 263 287 292 294 289 293 304 290 290 288 281 232 294 301 301 289 283 275 270 254 245 235 223 222 207 199
210 206 193 184 180 172 180 199 218 220 225 240 257 268 267 245 239 265 275 282 282 282 291 296 306 298 301 294 323 303 282 284 292 286 281 271 253 246 227 210 228 195 193
200 198 175 171 179 192 201 205 219 230 227 250 262 270 250 215 241 260 265 273 281 293 294 313 304 297 283 295 298 312 302 297 284 295 301 315 57 85 114 195 184 179 174
175 173 176 188 193 205 200 210 216 227 234 247 254 259 205 221 247 257 264 268 276 286 291 295 300 298 293 287 295 304 291 284 279 273 288 303 55 73 46 7 300 241 225
143 178 190 209 227 225 224 231 227 230 237 251 251 240 201 226 250 256 256 263 263 271 282 284 287 293 291 290 298 310 290 281 280 271 277 209 66 4 343 311 287 311 330
178 185 190 202 213 218 226 221 233 231 241 251 242 233 208 223 236 249 258 261 250 275 271 266 291 299 296 296 313 336 297 339 18 60 92 127 194 316 328 290 63 28 20
177 187 203 208 216 237 217 215 233 227 239 245 242 229 215 216 229 237 256 260 234 261 282 285 277 297 298 303 321 336 298 69 56 37 21 209 188 0 0 184 146 129 355
199 213 197 203 217 224 195 228 236 234 239 242 242 237 229 220 223 241 234 254 270 279 286 283 282 291 282 308 346 338 290 6 28 76 76 251 264 1 29 23 170 153 174
225 223 213 226 238 220 188 233 229 243 240 231 242 247 235 222 225 221 256 253 252 276 282 290 301 286 282 310 338 337 304 289 223 240 246 235 231 340 2 328 327 336 137
238 232 219 243 259 254 203 236 246 244 233 228 245 241 239 231 220 222 241 260 233 252 273 256 275 284 288 279 299 315 330 334 229 263 244 259 245 322 332 347 333 26 139
248 339 323 267 276 275 242 231 265 252 223 238 246 240 226 237 228 221 226 234 243 247 252 247 249 260 274 266 252 290 332 358 44 351 334 268 260 264 271 323 349 353 176
296 292 342 324 320 338 4 6 334 302 262 262 263 248 222 228 238 230 226 218 229 200 223 232 211 219 252 241 213 188 214 183 13 318 230 297 301 307 315 297 268 180 146
30 47 40 42 25 28 23 11 3 355 331 299 282 271 272 250 226 232 259 230 232 228 225 233 192 220 239 208 190 212 195 202 204 195 238 212 224 241 263 272 267 192 175